[[{"header":{"parameterUnit":"m.s-1","parameterCategory":2,"la1":30.2991,"la2":30.254,"lo1":-89.0895,"lo2":-89.0444,"dy":0.0017,"dx":0.0017,"nx":28,"ny":28,"refTime":"2024-07-22T21:00:00:Z","depth":"0","parameterNumber":2,"parameterNumberName":"U-component_of_CURRENTS"},"data":[0,0,0,0,0,0,0,0,0,0,0,0,0,0,0,0,0,0,0,0,0,0,0,0,0,0,0,0,0,0,0,0,0,0,0,0,0,0,0,0,0,0,0,0,0,0,0,0,0,0,0,0,0,0,0,0,0,0,-0.3136,-0.3136,0,-0.3057,-0.3055,-0.3053,-0.2929,-0.2927,-0.2926,-0.2925,-0.2752,-0.2749,-0.2746,0,0,0,0,0,0,0,0,0,0,0,0,0,-0.303,-0.3032,-0.3136,-0.3136,-0.3136,-0.3057,-0.3055,-0.3053,-0.2929,-0.2927,-0.2926,-0.2924,-0.2754,-0.275,-0.2746,0,0,0,0,0,0,0,0,0,0,0,0,0,-0.3017,-0.3033,-0.3136,-0.3072,-0.3066,-0.3057,-0.3055,-0.3052,-0.2929,-0.2927,-0.2925,-0.2923,-0.2755,-0.275,-0.2745,-0.2754,0,0,-0.273,-0.2727,0,0,0,0,0,0,0,0,-0.3018,-0.3019,-0.3081,-0.3076,-0.307,-0.3009,-0.2955,-0.2951,-0.293,-0.2971,-0.2925,-0.2922,-0.2838,-0.2826,-0.2802,-0.2746,-0.2738,-0.2729,-0.2726,-0.2724,-0.2723,0,0,0,0,0,0,0,-0.3019,-0.3021,-0.3094,-0.3082,-0.3075,-0.2996,-0.2992,-0.2952,-0.2907,-0.2967,-0.296,-0.2968,-0.2832,-0.2808,-0.2797,-0.2736,-0.2729,-0.2725,-0.2722,-0.272,-0.27,-0.2702,0,0,0,0,0,0,-0.306,-0.3024,-0.3097,-0.3093,-0.305,-0.3001,-0.2996,-0.3023,-0.2909,-0.2894,-0.297,-0.2963,-0.2817,-0.2803,-0.2791,-0.2825,-0.2724,-0.2719,-0.2716,-0.2697,-0.27,-0.2703,0,0,0,0,0,0,-0.3058,-0.3068,-0.31,-0.3062,-0.3062,-0.3007,-0.3036,-0.3022,-0.2997,-0.2914,-0.2894,-0.296,-0.2815,-0.2798,-0.2771,-0.2816,-0.2717,-0.2713,-0.2694,-0.2698,-0.2701,-0.2875,0,0,0,0,0,0,-0.3056,-0.3068,-0.309,-0.3067,-0.3067,-0.3113,-0.3039,-0.3023,-0.301,-0.2999,-0.29,-0.2881,-0.2812,-0.2779,-0.2766,-0.2808,-0.2709,-0.2691,-0.2696,-0.27,-0.2866,-0.2884,-0.2899,0,0,0,0,0,-0.3052,-0.3098,-0.3092,-0.31,-0.3103,-0.3116,-0.3107,-0.3052,-0.3012,-0.3017,-0.2953,-0.2884,-0.2799,-0.2777,-0.2761,-0.2802,-0.2689,-0.2694,-0.27,-0.2858,-0.288,-0.2899,0,0,0,0,0,0,-0.3061,-0.309,-0.3082,-0.3133,-0.3135,-0.3098,-0.3095,-0.3068,-0.302,-0.2998,-0.291,-0.289,-0.2882,-0.2825,-0.2804,-0.2812,-0.2736,-0.2738,-0.2862,-0.2881,-0.2898,-0.29,-0.2704,0,0,0,0,0,-0.3081,-0.3116,-0.3131,-0.3167,-0.3174,-0.3138,-0.3131,-0.3104,-0.3069,-0.3043,-0.2985,-0.2926,-0.2896,-0.2874,-0.2828,-0.2835,-0.276,-0.2854,-0.2871,-0.2885,-0.2878,-0.2846,-0.2859,-0.2721,-0.2721,-0.2721,0,0,-0.3092,-0.3113,-0.3131,-0.317,-0.3154,-0.3183,-0.3125,-0.313,-0.3147,-0.3035,-0.3026,-0.2977,-0.291,-0.2914,-0.2907,-0.287,-0.2882,-0.2892,-0.2905,-0.2889,-0.2853,-0.2866,-0.2878,-0.2725,-0.2724,-0.2724,0,0,-0.3129,-0.3155,-0.319,-0.321,-0.3221,-0.3211,-0.3225,-0.3208,-0.319,-0.3191,-0.3123,-0.3108,-0.3047,-0.3023,-0.3,-0.3085,-0.2969,-0.3074,-0.3161,-0.3133,-0.3143,-0.3151,-0.3056,-0.3055,-0.3087,-0.3087,-0.3087,0,-0.313,-0.3195,-0.32,-0.3243,-0.3266,-0.3236,-0.328,-0.3272,-0.3248,-0.3249,-0.3205,-0.3153,-0.3101,-0.3121,-0.315,-0.3123,-0.3059,-0.3092,-0.3154,-0.3161,-0.3166,-0.3066,-0.3062,-0.3096,-0.3095,-0.3094,-0.3093,0,-0.3193,-0.3248,-0.3271,-0.3321,-0.3348,-0.338,-0.3395,-0.3406,-0.3382,-0.3369,-0.3376,-0.3315,-0.3277,-0.3284,-0.3236,-0.3272,-0.3195,-0.3177,-0.3103,-0.3191,-0.3079,-0.3072,-0.3109,-0.3106,-0.3103,-0.3101,0,0,-0.316,-0.3292,-0.3292,-0.3347,-0.3395,-0.3426,-0.3474,-0.3511,-0.3534,-0.3512,-0.3527,-0.3512,-0.3465,-0.3437,-0.3393,-0.3383,-0.337,-0.3306,-0.33,-0.3209,-0.3252,-0.3029,-0.2998,-0.3365,-0.3365,-0.3366,-0.3151,0,-0.319,-0.3315,-0.336,-0.3457,-0.3523,-0.3541,-0.3591,-0.362,-0.3617,-0.3622,-0.3586,-0.3564,-0.353,-0.3501,-0.35,-0.3395,-0.3362,-0.3425,-0.318,-0.3171,-0.2963,-0.2987,-0.2824,-0.2605,-0.3143,-0.3142,-0.3141,0,-0.3199,-0.3303,-0.3419,-0.3556,-0.358,-0.3625,-0.3696,-0.3736,-0.3749,-0.374,-0.3728,-0.3667,-0.3641,-0.3589,-0.3473,-0.3511,-0.3392,-0.3313,-0.3303,-0.3024,-0.2936,-0.2607,-0.257,-0.2565,-0.3128,-0.3129,-0.313,0,-0.3157,-0.3319,-0.3423,-0.347,-0.3618,-0.3659,-0.3712,-0.3759,-0.3752,-0.3785,-0.3731,-0.3742,-0.3641,-0.3583,-0.3404,-0.3434,-0.3236,-0.3251,-0.2936,-0.2916,-0.2688,-0.2647,-0.261,-0.3158,-0.3159,-0.3159,-0.316,0,-0.3151,-0.3219,-0.3417,-0.3472,-0.3548,-0.3671,-0.3712,-0.3754,-0.3777,-0.3706,-0.376,-0.366,-0.3628,-0.3493,-0.3406,-0.3113,-0.3225,-0.2924,-0.285,-0.2739,-0.2707,-0.2617,-0.2674,-0.3151,-0.3153,-0.3155,-0.3156,0,-0.3025,-0.3178,-0.3277,-0.3472,-0.3515,-0.3548,-0.3626,-0.3617,-0.3699,-0.3591,-0.3567,-0.3538,-0.3354,-0.3283,-0.3126,-0.3012,-0.2757,-0.2708,-0.254,-0.2449,-0.2136,-0.2208,-0.2037,-0.199,-0.2321,-0.2315,-0.2309,0,-0.2967,-0.3026,-0.3198,-0.3189,-0.3249,-0.334,-0.3334,-0.3503,-0.3472,-0.3459,-0.3343,-0.3206,-0.2995,-0.2724,-0.2566,-0.2346,-0.2434,-0.2068,-0.2104,-0.2068,-0.2098,-0.2186,-0.2171,-0.1867,-0.1859,-0.1851,-0.1846,0,-0.279,-0.2838,-0.2881,-0.2903,-0.2913,-0.2966,-0.3006,-0.2998,-0.3115,-0.304,-0.2848,-0.2706,-0.2448,-0.2133,-0.1928,-0.1831,-0.2021,-0.1902,-0.1942,-0.1783,-0.1804,-0.1738,-0.2038,-0.1781,-0.1788,-0.1792,-0.1796,-0.1798,-0.2539,-0.2496,-0.2518,-0.2508,-0.2522,-0.251,-0.2486,-0.2523,-0.2459,-0.2274,-0.2297,-0.195,-0.173,-0.1394,-0.1382,-0.1267,-0.1433,-0.1217,-0.1313,-0.141,-0.1357,-0.1464,-0.1085,-0.1088,-0.109,-0.1091,-0.1093,0,-0.2165,-0.2137,-0.2105,-0.2081,-0.1988,-0.2144,-0.2157,-0.2093,-0.193,-0.1743,-0.1506,-0.1025,-0.0818,-0.08,-0.0732,-0.0722,-0.0828,-0.077,-0.0935,-0.0954,-0.1078,-0.1051,-0.0556,-0.0556,-0.0556,-0.0556,-0.0556,-0.0556,-0.1933,-0.176,-0.1783,-0.1548,-0.1545,-0.1425,-0.1413,-0.1331,-0.1216,-0.0799,-0.0479,-0.0311,-0.0332,-0.0409,-0.0526,-0.0559,-0.0678,-0.0595,-0.0731,-0.0907,-0.0961,-0.1013,-0.1003,-0.0505,-0.0506,-0.0553,-0.0554,-0.0554]},{"header":{"parameterUnit":"m.s-1","parameterCategory":2,"la1":30.2991,"la2":30.254,"lo1":-89.0895,"lo2":-89.0444,"dy":0.0017,"dx":0.0017,"nx":28,"ny":28,"refTime":"2024-07-22T21:00:00:Z","depth":"0","parameterNumber":3,"parameterNumberName":"V-component_of_CURRENTS"},"data":[0,0,0,0,0,0,0,0,0,0,0,0,0,0,0,0,0,0,0,0,0,0,0,0,0,0,0,0,0,0,0,0,0,0,0,0,0,0,0,0,0,0,0,0,0,0,0,0,0,0,0,0,0,0,0,0,0,0,-0.0004,-0.0002,0,0.0227,0.0229,0.0232,0.0313,0.0312,0.0311,0.0311,0.0549,0.0555,0.0562,0,0,0,0,0,0,0,0,0,0,0,0,0,-0.0298,-0.0293,-0.0005,-0.0002,0.0002,0.0227,0.023,0.0232,0.0313,0.0312,0.0311,0.0311,0.0546,0.0555,0.0563,0,0,0,0,0,0,0,0,0,0,0,0,0,-0.0132,-0.0292,-0.0005,0.0071,0.0081,0.0226,0.023,0.0233,0.0313,0.0312,0.0311,0.031,0.0544,0.0554,0.0564,0.0646,0,0,0.0596,0.06,0,0,0,0,0,0,0,0,-0.0142,-0.0122,0.0057,0.0066,0.0077,0.0243,0.0214,0.0373,0.0313,0.0221,0.0311,0.031,0.045,0.0468,0.0509,0.0657,0.0667,0.0596,0.0603,0.0607,0.061,0,0,0,0,0,0,0,-0.0153,-0.0131,0.0084,0.006,0.0073,0.0122,0.0143,0.0244,0.0335,0.0229,0.0236,0.0268,0.0455,0.0499,0.0515,0.0671,0.0596,0.0605,0.0612,0.0616,0.0852,0.0852,0,0,0,0,0,0,-0.0178,-0.0142,0.0077,0.0091,-0.0033,0.0127,0.0151,0.0188,0.0334,0.0357,0.0268,0.0271,0.0481,0.0503,0.0524,0.0589,0.0607,0.0617,0.0623,0.0852,0.0852,0.0852,0,0,0,0,0,0,-0.0185,-0.016,0.0067,-0.0018,0.0015,0.0133,0.0174,0.0193,0.024,0.0364,0.0386,0.0295,0.0481,0.0509,0.06,0.06,0.0621,0.0631,0.0852,0.0852,0.0852,0.0746,0,0,0,0,0,0,-0.0194,-0.0164,-0.015,-0.002,0.0019,0.0153,0.0176,0.0198,0.0262,0.0267,0.0396,0.0416,0.0483,0.0584,0.061,0.0615,0.0639,0.0852,0.0852,0.0852,0.075,0.0743,0.0737,0,0,0,0,0,-0.0206,-0.0167,-0.0151,-0.0124,0.0035,0.0155,0.0179,0.0257,0.0264,0.0293,0.0361,0.0412,0.0603,0.0593,0.0624,0.0631,0.0852,0.0852,0.0852,0.0752,0.0744,0.0737,0,0,0,0,0,0,-0.0279,-0.0151,-0.0131,-0.0056,0.0035,0.0169,0.0213,0.0257,0.0337,0.0336,0.043,0.0458,0.0531,0.0601,0.0588,0.0698,0.0731,0.0737,0.0644,0.0638,0.0631,0.06,0.0648,0,0,0,0,0,-0.0293,-0.0238,-0.0116,-0.0059,-0.0015,0.0091,0.0147,0.0199,0.0291,0.0326,0.0405,0.0486,0.056,0.0611,0.069,0.077,0.0799,0.0789,0.0783,0.0777,0.0771,0.0823,0.082,0.0853,0.0853,0.0853,0,0,-0.0308,-0.0229,-0.02,-0.0073,0.0002,0.0055,0.0122,0.021,0.0238,0.0341,0.0398,0.0474,0.0574,0.0643,0.0683,0.0703,0.0774,0.0777,0.0771,0.0769,0.0823,0.082,0.0817,0.0853,0.0853,0.0853,0,0,-0.031,-0.024,-0.0202,-0.0136,-0.0024,0.0042,0.006,0.0184,0.0225,0.0301,0.036,0.0433,0.0561,0.0623,0.0671,0.0686,0.0734,0.0708,0.0662,0.0712,0.071,0.0708,0.0696,0.0694,0.071,0.071,0.0709,0,-0.0344,-0.0284,-0.0173,-0.0128,-0.0092,0.0023,0.0047,0.0119,0.0245,0.0274,0.0301,0.046,0.0548,0.0621,0.0617,0.0672,0.0684,0.0679,0.0701,0.0701,0.0701,0.0689,0.0689,0.0705,0.0705,0.0706,0.0706,0,-0.0322,-0.029,-0.0257,-0.0183,-0.0121,-0.0075,0.0026,0.0078,0.0131,0.0198,0.0282,0.0398,0.0487,0.0526,0.0581,0.0624,0.0623,0.0679,0.0712,0.069,0.068,0.0681,0.0697,0.0699,0.0701,0.0702,0,0,-0.0385,-0.0273,-0.0274,-0.0267,-0.016,-0.0106,-0.006,0.0019,0.004,0.0153,0.0178,0.0316,0.0376,0.0434,0.0515,0.0569,0.057,0.0613,0.0618,0.0583,0.0626,0.0647,0.065,0.0626,0.0626,0.0627,0.0601,0,-0.0426,-0.0393,-0.0314,-0.0305,-0.029,-0.0191,-0.0157,-0.0072,0.0004,0.0061,0.0183,0.0247,0.0342,0.0375,0.0445,0.0536,0.0575,0.0568,0.0669,0.0671,0.0679,0.0654,0.0712,0.0698,0.0603,0.0603,0.0603,0,-0.0461,-0.0435,-0.0439,-0.0389,-0.037,-0.0346,-0.0286,-0.0235,-0.0122,-0.0063,0.0029,0.0124,0.0212,0.0298,0.0436,0.0421,0.0511,0.0587,0.0589,0.0651,0.0696,0.0718,0.0704,0.0823,0.0605,0.0605,0.0605,0,-0.0592,-0.0537,-0.0555,-0.0537,-0.0447,-0.0435,-0.039,-0.0284,-0.0252,-0.0152,-0.0136,0.0007,0.0047,0.0196,0.0354,0.039,0.0488,0.0562,0.0661,0.066,0.0754,0.0762,0.0861,0.0663,0.0663,0.0663,0.0663,0,-0.0688,-0.0706,-0.0619,-0.063,-0.0637,-0.0542,-0.0535,-0.0462,-0.0387,-0.0369,-0.0219,-0.0191,0.0026,0.0121,0.029,0.0451,0.0437,0.0637,0.0667,0.0714,0.0718,0.0864,0.0897,0.0662,0.0662,0.0663,0.0663,0,-0.0831,-0.0781,-0.0788,-0.0718,-0.0698,-0.0703,-0.0634,-0.0622,-0.0549,-0.0534,-0.0518,-0.0372,-0.0232,-0.0028,0.0186,0.0341,0.0589,0.0582,0.0586,0.0619,0.0852,0.0875,0.0948,0.1042,0.0687,0.0688,0.0688,0,-0.0897,-0.0919,-0.0865,-0.0856,-0.0825,-0.0811,-0.0794,-0.0714,-0.0701,-0.0638,-0.0647,-0.0526,-0.0365,-0.0074,0.0202,0.0474,0.0594,0.0658,0.0774,0.0857,0.0906,0.0904,0.0979,0.0829,0.083,0.0831,0.0832,0,-0.1002,-0.0981,-0.0964,-0.0957,-0.0945,-0.0947,-0.0926,-0.0942,-0.0863,-0.0784,-0.0686,-0.0552,-0.0302,0.0057,0.0359,0.0527,0.0742,0.0693,0.0809,0.1041,0.1019,0.1125,0.0798,0.0844,0.0843,0.0842,0.0841,0.0841,-0.1052,-0.106,-0.1018,-0.1011,-0.1022,-0.1049,-0.1038,-0.0976,-0.0899,-0.0649,-0.0589,-0.0151,0.0079,0.056,0.064,0.0901,0.0865,0.105,0.1067,0.1053,0.1172,0.083,0.0904,0.0903,0.0903,0.0902,0.0901,0,-0.1051,-0.1046,-0.1058,-0.1044,-0.1079,-0.1071,-0.1079,-0.0988,-0.0834,-0.0409,-0.0096,0.0571,0.0825,0.1007,0.1221,0.1318,0.1344,0.1343,0.1387,0.145,0.1189,0.1231,0.1344,0.1344,0.1344,0.1344,0.1344,0.1343,-0.1036,-0.102,-0.1022,-0.1056,-0.1076,-0.1069,-0.1062,-0.0857,-0.053,0.0227,0.088,0.1334,0.15,0.15,0.1605,0.1614,0.1754,0.1659,0.1731,0.1585,0.156,0.1536,0.1587,0.1773,0.1774,0.203,0.2033,0.2034]}],[{"header":{"parameterUnit":"m.s-1","parameterCategory":2,"la1":30.2991,"la2":30.254,"lo1":-89.0895,"lo2":-89.0444,"dy":0.0017,"dx":0.0017,"nx":28,"ny":28,"refTime":"2024-07-22T21:00:00:Z","depth":"2","parameterNumber":2,"parameterNumberName":"U-component_of_CURRENTS"},"data":[0,0,0,0,0,0,0,0,0,0,0,0,0,0,0,0,0,0,0,0,0,0,0,0,0,0,0,0,0,0,0,0,0,0,0,0,0,0,0,0,0,0,0,0,0,0,0,0,0,0,0,0,0,0,0,0,0,0,-0.228,-0.228,0,-0.2389,-0.2392,-0.2394,-0.245,-0.2449,-0.2448,-0.2447,-0.2495,-0.2497,-0.2499,0,0,0,0,0,0,0,0,0,0,0,0,0,-0.2228,-0.2229,-0.228,-0.228,-0.2281,-0.2389,-0.2392,-0.2394,-0.245,-0.2449,-0.2448,-0.2447,-0.2494,-0.2496,-0.2499,0,0,0,0,0,0,0,0,0,0,0,0,0,-0.2296,-0.223,-0.228,-0.2313,-0.2317,-0.2389,-0.2392,-0.2395,-0.245,-0.2449,-0.2447,-0.2446,-0.2493,-0.2496,-0.2499,-0.2549,0,0,-0.2509,-0.2511,0,0,0,0,0,0,0,0,-0.2292,-0.2299,-0.2308,-0.2311,-0.2315,-0.2395,-0.239,-0.2439,-0.2451,-0.2411,-0.2447,-0.2445,-0.2449,-0.2456,-0.2497,-0.2551,-0.2553,-0.251,-0.2512,-0.2513,-0.2514,0,0,0,0,0,0,0,-0.2287,-0.2295,-0.2335,-0.2308,-0.2312,-0.2359,-0.2368,-0.2402,-0.2445,-0.2415,-0.2416,-0.2411,-0.2452,-0.2494,-0.2498,-0.2554,-0.251,-0.2512,-0.2514,-0.2516,-0.2531,-0.253,0,0,0,0,0,0,-0.2247,-0.2291,-0.2331,-0.2337,-0.2287,-0.236,-0.237,-0.238,-0.2446,-0.2452,-0.2412,-0.2413,-0.2489,-0.2494,-0.2499,-0.2535,-0.2513,-0.2516,-0.2518,-0.2533,-0.2531,-0.2529,0,0,0,0,0,0,-0.2246,-0.2251,-0.2326,-0.2306,-0.2318,-0.2361,-0.2372,-0.2382,-0.2451,-0.2442,-0.2449,-0.2471,-0.2488,-0.2495,-0.2532,-0.2538,-0.2518,-0.252,-0.2535,-0.2532,-0.253,-0.2623,0,0,0,0,0,0,-0.2245,-0.225,-0.2272,-0.2304,-0.2317,-0.2431,-0.2373,-0.2385,-0.2442,-0.2446,-0.2495,-0.2496,-0.2487,-0.2527,-0.2535,-0.2542,-0.2523,-0.2537,-0.2533,-0.2531,-0.2622,-0.2624,-0.2626,0,0,0,0,0,-0.2243,-0.2283,-0.2273,-0.2278,-0.2337,-0.2435,-0.2452,-0.2481,-0.2447,-0.2529,-0.2502,-0.2496,-0.2511,-0.2531,-0.254,-0.2548,-0.2538,-0.2534,-0.2531,-0.2621,-0.2624,-0.2626,0,0,0,0,0,0,-0.2282,-0.2292,-0.2282,-0.2325,-0.2396,-0.2441,-0.2489,-0.2506,-0.2558,-0.2545,-0.2519,-0.2523,-0.2541,-0.2528,-0.2549,-0.2529,-0.2507,-0.2506,-0.2572,-0.2575,-0.2577,-0.2561,-0.2526,0,0,0,0,0,-0.2291,-0.232,-0.2356,-0.2397,-0.2419,-0.2459,-0.25,-0.2539,-0.2565,-0.2591,-0.2579,-0.2549,-0.2533,-0.2545,-0.2536,-0.2569,-0.2528,-0.2557,-0.256,-0.2562,-0.2548,-0.2507,-0.2506,-0.2518,-0.2518,-0.2518,0,0,-0.2301,-0.2321,-0.2329,-0.2407,-0.2439,-0.2478,-0.2487,-0.2577,-0.2596,-0.2583,-0.2586,-0.2577,-0.2539,-0.2549,-0.2554,-0.2548,-0.2535,-0.2558,-0.2561,-0.2544,-0.2503,-0.2503,-0.2502,-0.2515,-0.2516,-0.2516,0,0,-0.2319,-0.2366,-0.2374,-0.2439,-0.251,-0.2546,-0.2576,-0.2631,-0.2652,-0.269,-0.263,-0.2632,-0.2626,-0.2592,-0.2572,-0.2583,-0.2546,-0.2562,-0.2582,-0.2544,-0.2544,-0.2543,-0.2495,-0.249,-0.2569,-0.2569,-0.2569,0,-0.2323,-0.2343,-0.2409,-0.2441,-0.2484,-0.2562,-0.2602,-0.2641,-0.2695,-0.2682,-0.2697,-0.2625,-0.2636,-0.2589,-0.2592,-0.2595,-0.2554,-0.2593,-0.2552,-0.255,-0.2548,-0.2499,-0.2492,-0.2573,-0.2572,-0.2572,-0.2571,0,-0.234,-0.2362,-0.2388,-0.2425,-0.2512,-0.2586,-0.2635,-0.2672,-0.2688,-0.2695,-0.2681,-0.2689,-0.2632,-0.264,-0.2638,-0.2601,-0.2572,-0.2565,-0.2562,-0.2553,-0.2501,-0.2492,-0.2579,-0.2577,-0.2576,-0.2575,0,0,-0.2294,-0.2371,-0.2374,-0.2373,-0.2522,-0.2569,-0.2615,-0.2658,-0.2613,-0.2681,-0.2623,-0.2646,-0.264,-0.2612,-0.2602,-0.2599,-0.2587,-0.2587,-0.2583,-0.2567,-0.2487,-0.2309,-0.2281,-0.2578,-0.2577,-0.2576,-0.2461,0,-0.227,-0.231,-0.2377,-0.2403,-0.2428,-0.2523,-0.2541,-0.26,-0.2626,-0.2586,-0.2615,-0.2574,-0.2627,-0.2607,-0.2614,-0.2579,-0.2563,-0.2617,-0.2471,-0.2466,-0.2332,-0.2265,-0.2121,-0.1991,-0.2451,-0.245,-0.2448,0,-0.2243,-0.2277,-0.2327,-0.2351,-0.2365,-0.24,-0.2437,-0.2476,-0.2479,-0.2489,-0.249,-0.2484,-0.2487,-0.2533,-0.2495,-0.2524,-0.2507,-0.2499,-0.2494,-0.2283,-0.2268,-0.2067,-0.1956,-0.2432,-0.2434,-0.2435,-0.2436,0,-0.2177,-0.2212,-0.2252,-0.2286,-0.2354,-0.2359,-0.2398,-0.2441,-0.2421,-0.2433,-0.2389,-0.2402,-0.2369,-0.2387,-0.2374,-0.2436,-0.2303,-0.238,-0.2197,-0.2185,-0.2005,-0.1977,-0.233,-0.233,-0.233,-0.233,-0.2331,0,-0.214,-0.2126,-0.2203,-0.2217,-0.2197,-0.2306,-0.2276,-0.2294,-0.2302,-0.2258,-0.2329,-0.2254,-0.233,-0.226,-0.2308,-0.2179,-0.2239,-0.2161,-0.2126,-0.2028,-0.2005,-0.2344,-0.2347,-0.2326,-0.2327,-0.2328,-0.2329,0,-0.2052,-0.2119,-0.2109,-0.2163,-0.217,-0.2171,-0.2185,-0.2139,-0.2183,-0.2124,-0.2123,-0.2104,-0.2031,-0.2037,-0.2019,-0.2024,-0.1976,-0.1911,-0.1778,-0.1727,-0.1919,-0.1928,-0.1733,-0.1725,-0.1718,-0.1713,-0.1708,0,-0.2002,-0.2014,-0.2053,-0.203,-0.2045,-0.2053,-0.2046,-0.2092,-0.2064,-0.2019,-0.1968,-0.1859,-0.1766,-0.163,-0.1605,-0.156,-0.1714,-0.141,-0.1507,-0.1863,-0.185,-0.187,-0.1887,-0.1325,-0.1317,-0.1311,-0.1306,0,-0.1872,-0.1909,-0.1899,-0.1896,-0.1877,-0.1855,-0.1856,-0.1811,-0.1873,-0.1805,-0.1717,-0.1633,-0.1458,-0.1305,-0.1183,-0.1179,-0.142,-0.1282,-0.1649,-0.1482,-0.1463,-0.1456,-0.149,-0.1253,-0.1258,-0.1262,-0.1265,-0.1267,-0.1733,-0.1707,-0.1723,-0.1693,-0.1683,-0.1665,-0.1589,-0.1601,-0.1542,-0.146,-0.1492,-0.1351,-0.1263,-0.1006,-0.0906,-0.0844,-0.0986,-0.1019,-0.1045,-0.1075,-0.1032,-0.1,-0.0696,-0.0698,-0.07,-0.0702,-0.0703,0,-0.1548,-0.1543,-0.1506,-0.1476,-0.1419,-0.1481,-0.1442,-0.1359,-0.1264,-0.1267,-0.1192,-0.1013,-0.0844,-0.0769,-0.0567,-0.0512,-0.0603,-0.0512,-0.0651,-0.0699,-0.0744,-0.0694,-0.0264,-0.0263,-0.0262,-0.0262,0,0,-0.1439,-0.1352,-0.1359,-0.1224,-0.1208,-0.1087,-0.1039,-0.0956,-0.0921,-0.0838,-0.0804,-0.0884,-0.0793,-0.0597,-0.0471,-0.033,-0.0543,-0.0311,-0.0653,-0.0867,-0.0913,-0.1002,-0.0971,0,0,0,0,0]},{"header":{"parameterUnit":"m.s-1","parameterCategory":2,"la1":30.2991,"la2":30.254,"lo1":-89.0895,"lo2":-89.0444,"dy":0.0017,"dx":0.0017,"nx":28,"ny":28,"refTime":"2024-07-22T21:00:00:Z","depth":"2","parameterNumber":3,"parameterNumberName":"V-component_of_CURRENTS"},"data":[0,0,0,0,0,0,0,0,0,0,0,0,0,0,0,0,0,0,0,0,0,0,0,0,0,0,0,0,0,0,0,0,0,0,0,0,0,0,0,0,0,0,0,0,0,0,0,0,0,0,0,0,0,0,0,0,0,0,-0.0601,-0.0602,0,-0.0509,-0.0507,-0.0504,-0.0442,-0.0443,-0.0445,-0.0446,-0.0096,-0.0086,-0.0076,0,0,0,0,0,0,0,0,0,0,0,0,0,-0.0555,-0.0556,-0.0601,-0.0602,-0.0602,-0.051,-0.0507,-0.0504,-0.0442,-0.0444,-0.0445,-0.0446,-0.01,-0.0088,-0.0075,0,0,0,0,0,0,0,0,0,0,0,0,0,-0.0514,-0.0556,-0.0601,-0.0573,-0.0571,-0.051,-0.0507,-0.0503,-0.0442,-0.0444,-0.0445,-0.0447,-0.0104,-0.0089,-0.0073,0.0057,0,0,-0.0026,-0.0019,0,0,0,0,0,0,0,0,-0.0517,-0.0514,-0.0577,-0.0575,-0.0573,-0.0504,-0.0364,-0.0309,-0.0441,-0.0472,-0.0446,-0.0448,-0.0219,-0.0194,-0.0152,0.0073,0.0088,-0.0025,-0.0015,-0.0008,-0.0004,0,0,0,0,0,0,0,-0.052,-0.0517,-0.0547,-0.0577,-0.0575,-0.0509,-0.0504,-0.0352,-0.0319,-0.047,-0.0469,-0.0486,-0.0214,-0.0167,-0.0143,0.0093,-0.0025,-0.0011,-0.0002,0.0004,0.0417,0.0418,0,0,0,0,0,0,-0.0573,-0.0521,-0.0551,-0.0546,-0.0568,-0.051,-0.0504,-0.051,-0.0326,-0.0307,-0.0485,-0.0484,-0.0193,-0.0161,-0.013,0.0065,-0.0009,0.0006,0.0015,0.0415,0.0417,0.0419,0,0,0,0,0,0,-0.0572,-0.0576,-0.0555,-0.0545,-0.054,-0.0512,-0.0517,-0.0508,-0.0477,-0.0344,-0.0316,-0.0469,-0.0193,-0.0152,0.0033,0.0078,0.0013,0.0027,0.0413,0.0416,0.0418,0.0438,0,0,0,0,0,0,-0.0571,-0.0576,-0.0583,-0.0549,-0.0544,-0.0501,-0.0517,-0.0506,-0.0493,-0.049,-0.0319,-0.0289,-0.0191,0.0009,0.0048,0.0098,0.0039,0.0411,0.0414,0.0417,0.0435,0.044,0.0445,0,0,0,0,0,-0.0569,-0.0585,-0.0583,-0.0587,-0.0559,-0.0501,-0.0487,-0.0462,-0.0491,-0.0445,-0.033,-0.0295,0.0053,0.0026,0.007,0.0125,0.041,0.0413,0.0417,0.0433,0.0439,0.0445,0,0,0,0,0,0,-0.0572,-0.0581,-0.0578,-0.0596,-0.0546,-0.0497,-0.0484,-0.0469,-0.0349,-0.034,-0.0229,-0.0184,-0.0022,0.005,0.0015,0.0244,0.022,0.0233,0.0216,0.0224,0.0229,0.0179,0.0052,0,0,0,0,0,-0.058,-0.0592,-0.0566,-0.0575,-0.0563,-0.0522,-0.0502,-0.0467,-0.038,-0.0334,-0.0211,-0.009,0.0032,0.0123,0.0251,0.0415,0.0409,0.0461,0.0466,0.047,0.0456,0.0508,0.0516,0.0431,0.0431,0.0431,0,0,-0.0594,-0.0598,-0.0608,-0.0576,-0.0548,-0.0511,-0.0509,-0.0465,-0.0397,-0.0304,-0.0151,-0.0051,0.0075,0.0245,0.0321,0.0316,0.0484,0.0474,0.0478,0.0461,0.0513,0.0521,0.0528,0.0433,0.0433,0.0433,0,0,-0.0628,-0.062,-0.064,-0.0595,-0.0554,-0.0501,-0.0498,-0.0412,-0.0335,-0.0171,-0.0116,0.0014,0.0228,0.0327,0.0394,0.0506,0.0501,0.0526,0.0543,0.0594,0.0601,0.0607,0.0573,0.0576,0.054,0.0541,0.0541,0,-0.064,-0.0661,-0.0626,-0.0619,-0.058,-0.0511,-0.0477,-0.0382,-0.0228,-0.016,-0.0118,0.0129,0.0263,0.0403,0.0453,0.0521,0.0507,0.0514,0.0599,0.0605,0.0611,0.0575,0.0578,0.0542,0.0542,0.0542,0.0541,0,-0.0671,-0.0683,-0.0686,-0.0649,-0.0577,-0.0533,-0.0411,-0.031,-0.0215,-0.0129,0.0048,0.023,0.0353,0.0422,0.0497,0.0596,0.0554,0.0589,0.0577,0.0621,0.0579,0.0582,0.0544,0.0543,0.0543,0.0543,0,0,-0.0713,-0.0712,-0.0713,-0.0707,-0.0579,-0.0533,-0.0395,-0.0262,-0.0231,-0.0021,0.0043,0.0301,0.0349,0.0426,0.0522,0.0601,0.0657,0.0618,0.062,0.0569,0.0696,0.067,0.067,0.0703,0.0705,0.0706,0.0635,0,-0.0742,-0.076,-0.0712,-0.068,-0.0665,-0.0534,-0.0421,-0.0278,-0.0153,-0.0059,0.0126,0.0235,0.0363,0.0414,0.0522,0.0608,0.067,0.0668,0.0673,0.0671,0.0634,0.0676,0.0678,0.0617,0.0638,0.0638,0.0639,0,-0.0772,-0.0779,-0.0766,-0.0711,-0.0689,-0.063,-0.0474,-0.0368,-0.0212,-0.0119,0.0009,0.0114,0.0276,0.0368,0.0542,0.0525,0.0616,0.0686,0.0686,0.0656,0.0653,0.0587,0.0621,0.0643,0.0642,0.0642,0.0642,0,-0.0812,-0.081,-0.0802,-0.0777,-0.0692,-0.0633,-0.0548,-0.0388,-0.0308,-0.0186,-0.0155,0.0026,0.0114,0.0265,0.0451,0.049,0.0584,0.0652,0.0701,0.0695,0.0695,0.0688,0.0769,0.0769,0.0769,0.0769,0.077,0,-0.0849,-0.0858,-0.0841,-0.0843,-0.0799,-0.0696,-0.063,-0.0536,-0.0427,-0.0356,-0.0208,-0.0122,0.0102,0.0204,0.0369,0.0516,0.0523,0.069,0.0696,0.0697,0.0692,0.0724,0.072,0.0767,0.0767,0.0768,0.0768,0,-0.0901,-0.0902,-0.0908,-0.0854,-0.0829,-0.0787,-0.0679,-0.0651,-0.0552,-0.047,-0.043,-0.0249,-0.0093,0.0066,0.0276,0.0399,0.054,0.0593,0.0532,0.0535,0.0624,0.0622,0.0632,0.063,0.063,0.0629,0.0628,0,-0.0931,-0.0951,-0.0927,-0.0916,-0.0896,-0.0837,-0.0787,-0.0691,-0.065,-0.0507,-0.0468,-0.0331,-0.0147,0.0058,0.0264,0.0441,0.0504,0.0519,0.0647,0.0616,0.062,0.0619,0.0618,0.0626,0.0625,0.0624,0.0624,0,-0.0967,-0.0966,-0.0963,-0.0952,-0.0925,-0.0906,-0.0833,-0.0822,-0.0697,-0.0622,-0.0465,-0.0324,-0.0101,0.0137,0.0303,0.043,0.0487,0.0516,0.0512,0.0668,0.0608,0.0612,0.0612,0.062,0.062,0.062,0.0621,0.0621,-0.0971,-0.0973,-0.0971,-0.0955,-0.0949,-0.094,-0.0904,-0.0841,-0.0758,-0.0561,-0.0448,-0.02,-0.0035,0.0283,0.0393,0.0475,0.052,0.0578,0.0581,0.0584,0.0604,0.0548,0.0545,0.0545,0.0546,0.0546,0.0546,0,-0.0957,-0.0963,-0.0963,-0.0954,-0.0969,-0.0956,-0.0909,-0.084,-0.0729,-0.0474,-0.0276,-0.0075,0.0163,0.0314,0.0471,0.056,0.0579,0.0553,0.0583,0.0587,0.059,0.0613,0.0555,0.0555,0.0555,0.0555,0,0,-0.0946,-0.094,-0.0946,-0.0959,-0.0968,-0.0943,-0.0913,-0.0806,-0.061,-0.0332,-0.0118,0.0129,0.0273,0.0368,0.0456,0.0536,0.0551,0.0532,0.0521,0.0555,0.0558,0.0599,0.0637,0,0,0,0,0]}],[{"header":{"parameterUnit":"m.s-1","parameterCategory":2,"la1":30.2991,"la2":30.254,"lo1":-89.0895,"lo2":-89.0444,"dy":0.0017,"dx":0.0017,"nx":28,"ny":28,"refTime":"2024-07-22T21:00:00:Z","depth":"4","parameterNumber":2,"parameterNumberName":"U-component_of_CURRENTS"},"data":[0,0,0,0,0,0,0,0,0,0,0,0,0,0,0,0,0,0,0,0,0,0,0,0,0,0,0,0,0,0,0,0,0,0,0,0,0,0,0,0,0,0,0,0,0,0,0,0,0,0,0,0,0,0,0,0,0,0,-0.1101,-0.11,0,-0.1089,-0.1089,-0.1089,-0.1136,-0.1137,-0.1138,-0.1139,-0.1164,-0.1164,-0.1164,0,0,0,0,0,0,0,0,0,0,0,0,0,-0.1158,-0.1157,-0.1101,-0.11,-0.11,-0.1089,-0.1089,-0.1089,-0.1136,-0.1137,-0.1139,-0.114,-0.1165,-0.1164,-0.1163,0,0,0,0,0,0,0,0,0,0,0,0,0,-0.1141,-0.1157,-0.1101,-0.112,-0.1122,-0.1089,-0.1089,-0.1089,-0.1135,-0.1137,-0.1139,-0.1141,-0.1165,-0.1164,-0.1163,-0.1124,0,0,-0.1161,-0.1161,0,0,0,0,0,0,0,0,-0.1142,-0.1139,-0.1118,-0.1119,-0.112,-0.1114,-0.1118,-0.1102,-0.1135,-0.1133,-0.1139,-0.1141,-0.1148,-0.1149,-0.1146,-0.1126,-0.1127,-0.1161,-0.1161,-0.1161,-0.1161,0,0,0,0,0,0,0,-0.1143,-0.114,-0.1098,-0.1117,-0.1119,-0.1127,-0.1127,-0.1115,-0.1133,-0.1133,-0.1136,-0.113,-0.115,-0.1146,-0.1147,-0.1127,-0.1161,-0.1161,-0.116,-0.116,-0.119,-0.1192,0,0,0,0,0,0,-0.1138,-0.1141,-0.1099,-0.1098,-0.1133,-0.1125,-0.1125,-0.1116,-0.1133,-0.1136,-0.1129,-0.1132,-0.1146,-0.1147,-0.1148,-0.1187,-0.1161,-0.116,-0.116,-0.1189,-0.1191,-0.1192,0,0,0,0,0,0,-0.1139,-0.1134,-0.1099,-0.1118,-0.1114,-0.1122,-0.1112,-0.1115,-0.1133,-0.1128,-0.1133,-0.1146,-0.1148,-0.1148,-0.1177,-0.1186,-0.116,-0.1159,-0.1188,-0.119,-0.1191,-0.1212,0,0,0,0,0,0,-0.114,-0.1134,-0.1137,-0.1117,-0.1112,-0.1091,-0.111,-0.1113,-0.1124,-0.1129,-0.1144,-0.1147,-0.1149,-0.1178,-0.1177,-0.1184,-0.1159,-0.1186,-0.1189,-0.1191,-0.121,-0.1214,-0.1218,0,0,0,0,0,-0.1143,-0.1129,-0.1137,-0.1133,-0.1112,-0.109,-0.1089,-0.1103,-0.1123,-0.1127,-0.1159,-0.1148,-0.1191,-0.1179,-0.1176,-0.1184,-0.1185,-0.1188,-0.1191,-0.1208,-0.1213,-0.1218,0,0,0,0,0,0,-0.1158,-0.1132,-0.114,-0.1122,-0.1115,-0.1098,-0.1098,-0.1109,-0.1133,-0.1138,-0.1158,-0.1163,-0.1193,-0.1187,-0.1173,-0.1203,-0.1187,-0.1189,-0.1201,-0.1206,-0.121,-0.1203,-0.1158,0,0,0,0,0,-0.116,-0.1141,-0.1128,-0.1113,-0.1111,-0.111,-0.1107,-0.1105,-0.1115,-0.1128,-0.1157,-0.1179,-0.1195,-0.1202,-0.1214,-0.1219,-0.1214,-0.1226,-0.123,-0.1234,-0.1229,-0.1242,-0.1247,-0.1201,-0.1201,-0.1201,0,0,-0.1161,-0.1143,-0.1135,-0.1115,-0.1111,-0.1112,-0.1114,-0.1095,-0.1112,-0.1123,-0.1178,-0.1193,-0.1203,-0.1225,-0.1236,-0.1224,-0.1245,-0.1237,-0.124,-0.1233,-0.1246,-0.125,-0.1254,-0.1203,-0.1202,-0.1202,0,0,-0.1142,-0.1139,-0.1122,-0.1122,-0.1104,-0.1103,-0.1104,-0.1105,-0.1128,-0.116,-0.1182,-0.1204,-0.1242,-0.1246,-0.1252,-0.1279,-0.127,-0.1292,-0.1299,-0.1312,-0.1316,-0.1319,-0.1316,-0.1318,-0.1289,-0.1289,-0.1289,0,-0.1156,-0.1124,-0.1115,-0.1109,-0.1105,-0.1108,-0.1098,-0.1121,-0.1142,-0.1159,-0.1185,-0.1244,-0.1247,-0.1263,-0.1283,-0.1284,-0.1295,-0.1277,-0.1316,-0.1319,-0.1321,-0.1318,-0.132,-0.1291,-0.129,-0.129,-0.129,0,-0.1124,-0.1117,-0.1106,-0.1106,-0.1104,-0.1086,-0.1107,-0.1131,-0.1165,-0.119,-0.1234,-0.1253,-0.1283,-0.1292,-0.1298,-0.1318,-0.1321,-0.1322,-0.1299,-0.1327,-0.1322,-0.1324,-0.1292,-0.1292,-0.1292,-0.1291,0,0,-0.1115,-0.1089,-0.1091,-0.1088,-0.1092,-0.1082,-0.1115,-0.1133,-0.1169,-0.1212,-0.1258,-0.1284,-0.13,-0.1307,-0.1314,-0.1327,-0.135,-0.1339,-0.134,-0.1327,-0.1382,-0.1259,-0.125,-0.1372,-0.1373,-0.1373,-0.137,0,-0.1099,-0.1078,-0.1065,-0.1063,-0.106,-0.1072,-0.1111,-0.1133,-0.1181,-0.1243,-0.1258,-0.1316,-0.1306,-0.133,-0.1335,-0.1357,-0.1359,-0.1351,-0.1364,-0.1364,-0.1244,-0.1248,-0.1375,-0.1371,-0.1372,-0.1372,-0.1372,0,-0.1076,-0.1063,-0.105,-0.1042,-0.1042,-0.1055,-0.1094,-0.1124,-0.1201,-0.1242,-0.1283,-0.1328,-0.1351,-0.1354,-0.1368,-0.1373,-0.1375,-0.1385,-0.1385,-0.1261,-0.1244,-0.1339,-0.1376,-0.1375,-0.1375,-0.1375,-0.1375,0,-0.1071,-0.105,-0.1034,-0.1037,-0.1045,-0.1049,-0.1065,-0.113,-0.1179,-0.1258,-0.1315,-0.134,-0.1379,-0.1385,-0.1382,-0.1399,-0.1398,-0.1417,-0.13,-0.1291,-0.1395,-0.1392,-0.1423,-0.1423,-0.1423,-0.1423,-0.1423,0,-0.1048,-0.1042,-0.1036,-0.1038,-0.103,-0.1047,-0.108,-0.1108,-0.12,-0.1261,-0.1318,-0.136,-0.1399,-0.1405,-0.1392,-0.1326,-0.1392,-0.129,-0.1278,-0.1404,-0.1402,-0.1396,-0.1393,-0.1422,-0.1422,-0.1422,-0.1422,0,-0.1031,-0.1036,-0.1021,-0.1025,-0.1028,-0.1029,-0.1084,-0.114,-0.1214,-0.1299,-0.1337,-0.1402,-0.1383,-0.1379,-0.1379,-0.1327,-0.1288,-0.1247,-0.136,-0.1357,-0.1179,-0.1177,-0.1135,-0.1131,-0.1127,-0.1124,-0.1121,0,-0.1011,-0.1008,-0.1007,-0.1021,-0.102,-0.104,-0.108,-0.1142,-0.1207,-0.1305,-0.1346,-0.1371,-0.1384,-0.1259,-0.1261,-0.119,-0.1175,-0.1159,-0.1185,-0.1154,-0.1148,-0.1153,-0.1156,-0.1115,-0.1114,-0.1113,-0.1112,0,-0.0974,-0.0987,-0.0975,-0.1001,-0.1031,-0.1049,-0.1103,-0.1141,-0.1227,-0.1315,-0.1311,-0.1286,-0.1244,-0.1186,-0.1116,-0.1077,-0.1176,-0.112,-0.1129,-0.1153,-0.113,-0.1128,-0.1136,-0.1099,-0.1101,-0.1102,-0.1103,0,-0.0949,-0.0938,-0.0951,-0.0952,-0.1009,-0.1039,-0.1058,-0.1103,-0.1146,-0.1252,-0.1235,-0.1218,-0.1238,-0.1126,-0.1068,-0.0998,-0.1,-0.0994,-0.1009,-0.1024,-0.0982,-0.0935,-0.0823,0,0,0,0,0,-0.0913,-0.0904,-0.0915,-0.0911,-0.0975,-0.0984,-0.1078,-0.1116,-0.1192,-0.1165,-0.1195,-0.1139,-0.1047,-0.1032,-0.0931,-0.1019,-0.1007,-0.0902,-0.101,-0.1026,-0.1042,-0.0998,0,0,0,0,0,0,-0.0895,-0.0903,-0.0886,-0.0883,-0.0879,-0.0926,-0.0969,-0.1018,-0.0998,-0.1073,-0.101,-0.1066,-0.097,-0.1058,-0.0897,-0.0893,-0.0941,-0.0892,-0.089,-0.1018,-0.1032,-0.1044,-0.1004,0,0,0,0,0]},{"header":{"parameterUnit":"m.s-1","parameterCategory":2,"la1":30.2991,"la2":30.254,"lo1":-89.0895,"lo2":-89.0444,"dy":0.0017,"dx":0.0017,"nx":28,"ny":28,"refTime":"2024-07-22T21:00:00:Z","depth":"4","parameterNumber":3,"parameterNumberName":"V-component_of_CURRENTS"},"data":[0,0,0,0,0,0,0,0,0,0,0,0,0,0,0,0,0,0,0,0,0,0,0,0,0,0,0,0,0,0,0,0,0,0,0,0,0,0,0,0,0,0,0,0,0,0,0,0,0,0,0,0,0,0,0,0,0,0,-0.0509,-0.051,0,-0.0524,-0.0524,-0.0524,-0.0508,-0.0508,-0.0507,-0.0507,-0.0482,-0.0481,-0.0481,0,0,0,0,0,0,0,0,0,0,0,0,0,-0.0433,-0.0435,-0.0509,-0.051,-0.051,-0.0524,-0.0524,-0.0524,-0.0508,-0.0508,-0.0507,-0.0507,-0.0482,-0.0481,-0.0481,0,0,0,0,0,0,0,0,0,0,0,0,0,-0.0457,-0.0435,-0.0509,-0.0506,-0.0506,-0.0524,-0.0524,-0.0524,-0.0508,-0.0508,-0.0507,-0.0507,-0.0482,-0.0481,-0.0481,-0.0489,0,0,-0.0479,-0.0479,0,0,0,0,0,0,0,0,-0.0455,-0.0459,-0.0506,-0.0506,-0.0506,-0.0516,-0.0488,-0.0511,-0.0508,-0.0505,-0.0507,-0.0506,-0.0492,-0.049,-0.0491,-0.0488,-0.0487,-0.0479,-0.0479,-0.0479,-0.0479,0,0,0,0,0,0,0,-0.0454,-0.0458,-0.0512,-0.0507,-0.0507,-0.0492,-0.0495,-0.0492,-0.0498,-0.0505,-0.0504,-0.051,-0.0491,-0.0492,-0.049,-0.0486,-0.0479,-0.0479,-0.0479,-0.0479,-0.0499,-0.05,0,0,0,0,0,0,-0.046,-0.0457,-0.0512,-0.0513,-0.0482,-0.0494,-0.0497,-0.0511,-0.0499,-0.0498,-0.0511,-0.051,-0.0493,-0.0491,-0.0489,-0.0511,-0.0479,-0.0478,-0.0478,-0.0498,-0.0499,-0.05,0,0,0,0,0,0,-0.0459,-0.0465,-0.0512,-0.0487,-0.0492,-0.0497,-0.0512,-0.0512,-0.052,-0.0505,-0.0502,-0.0521,-0.0492,-0.049,-0.0488,-0.0509,-0.0478,-0.0478,-0.0497,-0.0498,-0.0499,-0.0546,0,0,0,0,0,0,-0.0456,-0.0465,-0.0482,-0.0488,-0.0494,-0.0537,-0.0513,-0.0513,-0.0526,-0.0524,-0.0512,-0.0509,-0.0492,-0.0489,-0.0488,-0.0508,-0.0477,-0.0496,-0.0497,-0.0499,-0.0544,-0.0549,-0.0554,0,0,0,0,0,-0.0454,-0.0481,-0.0483,-0.049,-0.0516,-0.0538,-0.054,-0.0538,-0.0527,-0.0541,-0.0522,-0.051,-0.0498,-0.0489,-0.0487,-0.0508,-0.0495,-0.0497,-0.0499,-0.0542,-0.0548,-0.0554,0,0,0,0,0,0,-0.0458,-0.0482,-0.0484,-0.0518,-0.0534,-0.0537,-0.0552,-0.0548,-0.0545,-0.0543,-0.0516,-0.0512,-0.0523,-0.0508,-0.0499,-0.0519,-0.0497,-0.0498,-0.053,-0.0536,-0.0541,-0.0528,-0.0477,0,0,0,0,0,-0.0469,-0.0498,-0.0511,-0.0542,-0.055,-0.0552,-0.0562,-0.0564,-0.0561,-0.056,-0.0545,-0.0532,-0.053,-0.0526,-0.0523,-0.053,-0.0476,-0.0544,-0.0549,-0.0553,-0.0542,-0.0485,-0.0483,-0.0506,-0.0506,-0.0506,0,0,-0.0479,-0.0499,-0.0515,-0.0546,-0.0555,-0.057,-0.0556,-0.0582,-0.0591,-0.0558,-0.0561,-0.0553,-0.0537,-0.0546,-0.0549,-0.0535,-0.0515,-0.0555,-0.0559,-0.0545,-0.0487,-0.0484,-0.0482,-0.0507,-0.0507,-0.0507,0,0,-0.0511,-0.0532,-0.0561,-0.0574,-0.0599,-0.06,-0.061,-0.0617,-0.0617,-0.0627,-0.0603,-0.0601,-0.0598,-0.0584,-0.0578,-0.0608,-0.0548,-0.0616,-0.0625,-0.0571,-0.0568,-0.0565,-0.0475,-0.0463,-0.0614,-0.0614,-0.0614,0,-0.052,-0.056,-0.0573,-0.0597,-0.061,-0.0613,-0.0635,-0.0638,-0.0642,-0.0633,-0.0637,-0.0615,-0.0616,-0.0601,-0.0618,-0.0619,-0.056,-0.0604,-0.0575,-0.0571,-0.0567,-0.0475,-0.0462,-0.0616,-0.0616,-0.0616,-0.0615,0,-0.0561,-0.0594,-0.0613,-0.0641,-0.0656,-0.0683,-0.0685,-0.069,-0.069,-0.0682,-0.0677,-0.0668,-0.0645,-0.066,-0.0652,-0.0628,-0.0584,-0.0591,-0.0556,-0.0567,-0.047,-0.0455,-0.062,-0.0619,-0.0618,-0.0617,0,0,-0.0575,-0.0631,-0.0638,-0.0651,-0.0683,-0.0693,-0.0709,-0.0712,-0.0701,-0.0708,-0.0679,-0.0701,-0.0679,-0.067,-0.0657,-0.0622,-0.0555,-0.0597,-0.0593,-0.0499,-0.0394,-0.0378,-0.0359,-0.055,-0.0548,-0.0547,-0.0331,0,-0.0602,-0.0655,-0.0675,-0.071,-0.0731,-0.0733,-0.0743,-0.0742,-0.0734,-0.0702,-0.0686,-0.0664,-0.0686,-0.067,-0.0643,-0.0574,-0.052,-0.061,-0.0405,-0.0397,-0.0376,-0.0344,-0.0541,-0.032,-0.0316,-0.0314,-0.0312,0,-0.0629,-0.0662,-0.0711,-0.0737,-0.0743,-0.0758,-0.0752,-0.0762,-0.0724,-0.0712,-0.068,-0.0648,-0.0596,-0.0617,-0.0491,-0.0541,-0.0471,-0.0419,-0.041,-0.0366,-0.0354,-0.0311,-0.0284,-0.0286,-0.0288,-0.029,-0.0291,0,-0.0627,-0.0677,-0.0717,-0.0729,-0.0762,-0.0769,-0.0776,-0.0762,-0.0748,-0.0697,-0.0654,-0.0603,-0.0538,-0.0472,-0.0381,-0.0421,-0.0216,-0.0256,-0.0164,-0.0159,-0.0217,-0.0223,-0.0153,-0.0154,-0.0154,-0.0155,-0.0155,0,-0.0645,-0.0673,-0.0715,-0.0736,-0.0752,-0.0773,-0.0775,-0.0765,-0.0729,-0.068,-0.0649,-0.0566,-0.0498,-0.0379,-0.0328,-0.018,-0.0165,-0.014,-0.0104,-0.0241,-0.0252,-0.0204,-0.0213,-0.0147,-0.0148,-0.015,-0.0151,0,-0.0643,-0.0683,-0.0715,-0.0752,-0.0758,-0.0765,-0.0766,-0.0759,-0.0723,-0.0644,-0.0615,-0.0495,-0.0344,-0.0259,-0.0107,-0.0083,0.0029,0.0078,-0.0025,-0.0002,0.0042,0.0028,0.0207,0.0209,0.0211,0.0213,0.0214,0,-0.0652,-0.0677,-0.0714,-0.0728,-0.0748,-0.0761,-0.0772,-0.0758,-0.0729,-0.0587,-0.0527,-0.0357,-0.0276,-0.0014,0.0035,0.017,0.0157,0.0226,0.0074,0.0062,0.0079,0.0061,0.0045,0.0217,0.0218,0.0219,0.0219,0,-0.0657,-0.0674,-0.0696,-0.0727,-0.0743,-0.0752,-0.0748,-0.0705,-0.0656,-0.0612,-0.0408,-0.0277,-0.0086,0.0037,0.0156,0.0229,0.0173,0.0246,0.024,0.0098,0.0077,0.0088,0.0069,0.0226,0.0225,0.0224,0.0224,0,-0.0652,-0.0661,-0.0696,-0.071,-0.0739,-0.0732,-0.0724,-0.0654,-0.0606,-0.0447,-0.0364,-0.0182,-0.0073,0.0076,0.018,0.0257,0.0237,0.0217,0.0212,0.0205,0.0098,0.0065,0.0267,0,0,0,0,0,-0.0646,-0.0661,-0.0679,-0.0701,-0.0729,-0.0743,-0.071,-0.0692,-0.0611,-0.0464,-0.0412,-0.0238,-0.0035,0.0064,0.0147,0.0163,0.0214,0.0257,0.0178,0.0264,0.0256,0.0127,0,0,0,0,0,0,-0.0649,-0.0673,-0.0675,-0.0694,-0.0709,-0.0733,-0.071,-0.0651,-0.0557,-0.0453,-0.0336,-0.0253,-0.0062,-0.009,0.0137,0.0164,0.0118,0.0353,0.0354,0.0269,0.0262,0.0255,0.0119,0,0,0,0,0]}]]